Location: *
(50.8160°S, 176.0219°W)
Time: 23:35:11
(UTC+00:00)

Thor Agena Rocket - Pass Details

Date: 19 May 2026
Orbit: 755 x 802 km, 99.1° (Epoch: 11 June)

Event Time Altitude Azimuth Distance (km) Brightness Sun altitude
Rises 17:30:50 0° 18° (NNE) 3,307 7.2 -16.8°
Reaches altitude 10° 17:33:08 10° 17° (NNE) 2,387 6.4 -16.4°
Maximum altitude 17:38:27 88° 290° (WNW) 822 3.6 -15.6°
Drops below altitude 10° 17:43:50 10° 196° (SSW) 2,417 5.8 -14.8°
Sets 17:46:11 0° 195° (SSW) 3,352 6.5 -14.4°
